{"data":{"norad_id":59405,"intl_designator":"2024-064H","name":"STARLINK-31400","alt_names":[],"object_type":"PAYLOAD","status":"ACTIVE","operator":null,"country":"US","launch_date":"2024-04-05","launch_site_code":"AFETR","launch_vehicle":null,"mission":null,"orbit_class":"UNKNOWN","rcs_meters":null,"size_class":null,"mass_kg":null,"dimensions":null,"purposes":["comms"],"wikipedia_slug":null,"has_3d_model":false,"image_url":null,"decayed_at":null,"tle_current":{"epoch":"2026-05-24T22:58:26.634144Z","epoch_age_seconds":78846,"freshness":"FRESH","line1":"1 59405U 24064H   26144.95725271  .00012465  00000+0  46250-3 0  9991","line2":"2 59405  43.0023 345.1329 0000900 231.0601 129.0170 15.27525710120891","mean_motion":15.2752571,"eccentricity":9.0e-5,"inclination_deg":43.0023,"raan_deg":345.1329,"arg_perigee_deg":231.0601,"mean_anomaly_deg":129.017,"bstar":0.0004625,"rev_number":12089,"period_min":94.27009906105,"perigee_km":482.59414326529,"apogee_km":483.82918602493,"semimajor_km":6861.3486646451,"source":"CELESTRAK","updated_at":"2026-05-25T13:38:18.940154Z"}}}